sat.trackr.live / text

‹ back to catalog

STARLINK-30787

NORAD 58128 · 2023-162L

PAYLOAD ACTIVE UNKNOWN

§ Identity

Operator
Country
US
Launch date
2023-10-22
Launch site
AFETR
Launch vehicle
Mass (kg)
RCS (m²)

Purposes: comms

External: N2YO · Heavens-Above · Gunter

§ Orbital elements

Epoch: 2026-09-19T00:44:42.892800Z

Period
94.27 min
Inclination
42.9990°
Eccentricity
0.0001456
Mean motion
15.27580280 rev/d
Perigee alt
482.0 km
Apogee alt
484.0 km
Semi-major
6,861.2 km
B*
-5.4364e-5
RAAN
117.4085°
Arg perigee
261.0320°
Mean anomaly
99.0366°
Rev number
16,191

§ Raw data

STARLINK-307871 58128U 23162L   26262.03105200 -.00001758  00000+0 -54364-4 0  99952 58128  42.9990 117.4085 0001456 261.0320  99.0366 15.27580280161914

JSON: /api/v1/satellites/58128 · /tle

For live sub-satellite position, see the globe view (requires WebGL).

§ Visibility from observer

Set your observer location to see the next 7 days of passes ≥ 10°. The values pass through the URL so the page stays shareable.

No JS? Fill the form by hand. The geolocation button needs JavaScript.